Tracking 17884 objects as of 3-December-2016
HD Live streaming from Space Station
objects crossing your sky now

ASIASTAR

Track ASIASTAR now!
ASIASTAR is classified as:


NORAD ID: 26107
Int'l Code: 2000-016A
Perigee: 35,778.7 km
Apogee: 35,809.8 km
Inclination: 1.3 °
Period: 1,436.1 minutes
Semi major axis: 42165 km
RCS: 19.9526 m2 (large)
Launch date: March 21, 2000
Source: United States (US)
Launch site: FRENCH GUIANA (FRGUI)

Africa, Middle East, Asia, Latin America and Caribbean. Services to underserved emerging markets; low-cost portable receivers.
Your satellite tracking list
Your tracking list is empty





NASA's NSSDC Master Catalog

Two Line Element Set (TLE):
1 26107U 00016A   16337.87698367 -.00000323  00000-0  00000+0 0  9995
2 26107   1.2707  81.9808 0003695 168.2612 242.6736  1.00270848 61229
Source of the keplerian elements: AFSPC